Location: Unspecified
(0.0000°N, 0.0000°E)
Time: 16:27:45
(UTC+00:00)

Hubble Space Telescope - Pass Details

Date: 13 May 2021
Orbit: 535 x 539 km, 28.5° (Epoch: 14 May)

Event Time Altitude Azimuth Distance (km) Brightness Sun altitude
Rises 18:15:33 0° 258° (WSW) 2,673 5.5 -4.5°
Maximum altitude 18:20:30 10° 206° (SSW) 1,787 3.5 -5.7°
Drops below altitude 10° 18:20:34 10° 206° (SSW) 1,787 3.5 -5.7°
Sets 18:25:28 0° 155° (SSE) 2,679 3.9 -6.9°
